This demonstration page uses our WeatherBlox Daily Observations layout. Learn more.

Left ArrowRight Arrow

Hourly Observations for April 22, 2020

Temp ( °F °C ) Dew Point ( °F °C ) Humidity (%) Winds ( mph kmh ) Pressure ( in mb ) Visibility ( mi km ) Precip ( " mm )
12:53 am 00:53 Clear 58 14.4 48 8.9 70 70 Calm 30.18 1022 10 16 0.00 0.00
1:53 am 01:53 Clear 55 12.8 47 8.3 74 74 NE 3 6 30.19 1022 10 16 0.00 0.00
2:53 am 02:53 Clear 53 11.7 47 8.3 80 80 Calm 30.19 1022 10 16 0.00 0.00
3:53 am 03:53 Clear 52 11.1 46 7.8 80 80 Calm 30.20 1023 10 16 0.00 0.00
4:53 am 04:53 Clear 51 10.6 45 7.2 80 80 Calm 30.20 1023 10 16 0.00 0.00
5:53 am 05:53 Clear 50 10 45 7.2 83 83 Calm 30.20 1023 10 16 0.00 0.00
6:53 am 06:53 Sunny 50 10 45 7.2 83 83 SE 3 6 30.22 1023 10 16 0.00 0.00
7:53 am 07:53 Sunny 55 12.8 47 8.3 74 74 W 3 6 30.24 1024 10 16 0.00 0.00
8:53 am 08:53 Sunny 60 15.6 49 9.4 67 67 Calm 30.24 1024 10 16 0.00 0.00
9:53 am 09:53 Sunny 66 18.9 49 9.4 54 54 NE 3 6 30.23 1024 10 16 0.00 0.00
10:53 am 10:53 Sunny 69 20.6 46 7.8 44 44 ENE 5 7 30.23 1024 10 16 0.00 0.00
11:53 am 11:53 Sunny 73 22.8 46 7.8 38 38 Calm 30.22 1023 10 16 0.00 0.00
12:53 pm 12:53 Mostly Sunny 74 23.3 46 7.8 37 37 Calm 30.19 1022 10 16 0.00 0.00
1:53 pm 13:53 Sunny 76 24.4 48 8.9 37 37 SE 3 6 30.18 1022 10 16 0.00 0.00
2:53 pm 14:53 Mostly Cloudy 77 25 50 10 39 39 ESE 5 7 30.16 1021 10 16 0.00 0.00
3:53 pm 15:53 Mostly Cloudy 79 26.1 53 11.7 41 41 WSW 8 13 30.15 1021 10 16 0.00 0.00
4:53 pm 16:53 Partly Cloudy 79 26.1 55 12.8 44 44 SW 8 13 30.14 1021 10 16 0.00 0.00
5:53 pm 17:53 Mostly Sunny 79 26.1 55 12.8 44 44 WSW 7 11 30.14 1021 10 16 0.00 0.00
6:53 pm 18:53 Sunny 78 25.6 53 11.7 42 42 VRB 6 9 30.14 1021 10 16 0.00 0.00
7:53 pm 19:53 Sunny 75 23.9 52 11.1 45 45 W 5 7 30.14 1021 10 16 0.00 0.00
8:53 pm 20:53 Clear 73 22.8 51 10.6 46 46 WSW 5 7 30.15 1021 10 16 0.00 0.00
9:53 pm 21:53 Clear 69 20.6 52 11.1 55 55 NE 7 11 30.16 1022 10 16 0.00 0.00
10:53 pm 22:53 Clear 66 18.9 52 11.1 61 61 Calm 30.18 1022 10 16 0.00 0.00
11:53 pm 23:53 Clear 67 19.4 51 10.6 57 57 VRB 3 6 30.18 1022 10 16 0.00 0.00

Powered by AerisWeather